Showing default

FORMOSAT7-1/COSMIC2-1, 44349

Orbit data source: Space-Track

FORMOSAT7-1/COSMIC2-1, 44349 is a payload satellite owned by NSPO (TW) in LEO that was launched on Tue, 25 Jun 2019 UTC via an FALCON HEAVY launch vehicle from the Air Force Eastern Test Range (AFETR). Payload-class satellites include a variety of spacecraft equipped with specific instruments for various scientific and technological missions. These include communications satellites like Starlink; space stations such as the ISS; scientific satellites like the Hubble; Earth observation satellites from companies like Planet Labs, Umbra, and HawkEye 360; GPS; miniature CubeSats for education and research; and military/defense satellites.

Not visible in the next 10 days
Identifier
44349, 2019-036L
Orbit
LEO
Country
Flag of TWTW / TWN
Related business
Manufacturer
SSTL (Astrium)
Mission
Operational Civil Weather
Bus & Motor
SSTL-100, Unknown motor
Mass
278 kg wet, 278 kg dry
Launch date (UTC)
2019-06-25 (6 years ago)
Launch vehicle
FALCON HEAVY
Launch site
Air Force Eastern Test Range (AFETR)
Object type
Payload
Rocket body
Debris
Shape & HBR
Box + 1 Pan, 1.5 m
Radar Cross Section
2.189 m², Large (>1 m²)

Expand to show TLE details & history
Last TLE update: 11 hours ago

TLE from 11 hours ago
0 FORMOSAT7-1/COSMIC2-1
1 44349U 19036L   25351.62953749  .00002767  00000-0  20083-3 0  9992
2 44349  23.9958 176.5994 0001123  24.5719 335.4836 14.98456759357429
Epoch: 2025-12-17T15:06Z
TLE epoch observation values (Epoch: 2025-12-17T15:06:32.039Z)
Latitude
0.00001°
Longitude
-136.53071°
Altitude
568.842 km
Speed
7.58 km/s
True Right ascension
11h 46m 23s
True Declination
0° 00' 00"
Sunlit
Object was in daylight at epoch
Visualization orbit readout
Latitude
Unknown
Longitude
Unknown
Altitude
Unknown
Speed
Unknown
Apparent Right ascension
Unknown
Apparent Declination
Unknown
Sunlit
N/A
Visualization observer readout
Local Sidereal Time
01:22:01
Azimuth
Unknown
Elevation
Unknown
Doppler factor
Unknown
Orbital elements
Apogee altitude
577.217 km
Perigee altitude
575.655 km
Semi-major axis
6,954.573 km
Eccentricity
0.00011
Inclination
23.9958°
RAAN
176.5994°
Arg. of periapsis
24.5719°
True anomaly
335.47826°
Mean anomaly
335.4836°
Eccentric anomaly
335.48093°
Mean motion
3.74229 °/min
Orbital period
96.2 mins
BSTAR
0.00020083
Loading maneuver chart data...
Computing Atmospheric mass density...
Loading historical data...
Loading historical data...
Loading historical data...
Loading historical data...
Loading historical data...
Loading historical data...
Loading historical data...

Documentation

Showing up to 5 results
|